World > North America > United States > North Carolina > Smethport

Hourly Smethport, NC Regional Weather

Feedback E-mail the Weather

Quick WX

Smethport, NC Weather Maps

°F °C°F °C
Smethport Weather Map
UTC Time: 8/11/2022, 14:42
Your Time:

Smethport, NC Regional Weather

Expires:202208111500;;913573
ASUS42 KRAH 111410
RWRRAH
NORTH CAROLINA WEATHER ROUNDUP
NATIONAL WEATHER SERVICE RALEIGH NC
1000 AM EDT THU AUG 11 2022

NOTE: "FAIR" INDICATES FEW OR NO CLOUDS BELOW 12,000 FEET WITH NO
SIGNIFICANT WEATHER AND/OR OBSTRUCTIONS TO VISIBILITY.


NCZ001-053-055-056-065-067-111500-
WESTERN NORTH CAROLINA
  
CITY           SKY/WX    TMP DP  RH WIND       PRES   REMARKS
ASHEVILLE      CLOUDY    71  65  81 NW8       30.17S                  
JEFFERSON      CLOUDY    68  61  79 W9G16     30.19S                  
HICKORY        MOSUNNY   76  70  82 SW3       30.09S                  
WILKESBORO     MOSUNNY   73  68  83 CALM      30.15S                  
RUTHERFORDTON  MOSUNNY   73  70  88 CALM      30.11F                  
MOUNT AIRY     MOSUNNY   74  68  80 CALM      30.11S                  
BOONE          PTSUNNY   67  63  85 W15G22    30.19F                  
$$
 

SKY/WX - Weather  TMP - Temperature  DP - Dew Point  RH - Humidity
WIND - Wind Direction/Speed PRES - Barometric Pressure VSB - Visibility
WCI - Wind Chill Index E13G22 Wind - East Wind 13 mph/Gusts of 22 mph

Trending Headlines

Smethport Radar Loop



Smethport Quick Facts


National Two Day Weather Forecast


E-mail the Smethport Weather Forecast

Voice your opinion or tell us about page issues...